Location: Unspecified
(0.0000°N, 0.0000°E)
Time: 17:56:40
(UTC+00:00)

Vanguard 1 - Pass Details

Date: 21 December 2025
Orbit: 651 x 3820 km, 34.2° (Epoch: 14 January)

Event Time Altitude Azimuth Distance (km) Brightness Sun altitude
Rises 22:04:31 0° 231° (SW) 7,959 15.3 -53.8°
Reaches altitude 10° 22:13:55 10° 213° (SSW) 6,750 14.7 -55.5°
Maximum altitude 22:26:18 17° 178° (S) 5,458 14.0 -57.6°
Drops below altitude 10° 22:36:03 10° 141° (SE) 5,251 13.8 -59.2°
Enters shadow 22:40:16 - 126° (SE) 5,521 13.9 -59.8°
